When you browse on this site, cookies collect data to enhance your experience and personalize the content and advertising you see.
Visit our Privacy Policy to learn more. By continuing to use the site, you agree to this use of cookies and data.

Hourly Weather Shibam

Today, 5 July, Sunday

Time Temperature Precipitation Wind Pressure Humidity
00:00 +15°C° 4.6 mm 5 mps 556 mmHg 80%
01:00 +15°C° 1.9 mm 4 mps 556 mmHg 77%
02:00 +15°C° 1.9 mm 4 mps 555 mmHg 74%
03:00 +14°C° 0 mm 4 mps 555 mmHg 74%
04:00 +16°C° 0.2 mm 3 mps 555 mmHg 70%
05:00 +17°C° 0.2 mm 3 mps 556 mmHg 67%
06:00 +18°C° 0.2 mm 2 mps 557 mmHg 63%
07:00 +19°C° 0 mm 2 mps 557 mmHg 58%
08:00 +19°C° 0 mm 3 mps 558 mmHg 53%
09:00 +20°C° 0 mm 3 mps 559 mmHg 48%
10:00 +21°C° 0.1 mm 4 mps 559 mmHg 48%
11:00 +21°C° 0.1 mm 4 mps 559 mmHg 48%
12:00 +21°C° 0.1 mm 5 mps 559 mmHg 48%
13:00 +21°C° 0.4 mm 4 mps 558 mmHg 51%
14:00 +20°C° 0.4 mm 4 mps 557 mmHg 54%
15:00 +19°C° 0.4 mm 3 mps 556 mmHg 57%
16:00 +19°C° 0.6 mm 3 mps 556 mmHg 60%
17:00 +18°C° 0.6 mm 2 mps 556 mmHg 63%
18:00 +18°C° 0.6 mm 2 mps 555 mmHg 66%
19:00 +18°C° 0.1 mm 2 mps 556 mmHg 65%
20:00 +18°C° 0.1 mm 3 mps 556 mmHg 65%
21:00 +18°C° 0.1 mm 3 mps 556 mmHg 65%
22:00 +18°C° 0.1 mm 2 mps 556 mmHg 64%
23:00 +18°C° 0.1 mm 2 mps 557 mmHg 64%

Tomorrow, 6 July, Monday

Time Temperature Precipitation Wind Pressure Humidity
00:00 +19°C° 0.1 mm 1 mps 557 mmHg 63%
01:00 +17°C° 0 mm 0 mps 556 mmHg 64%
02:00 +17°C° 0 mm 0 mps 556 mmHg 65%
03:00 +17°C° 0 mm 0 mps 556 mmHg 66%
04:00 +17°C° 0 mm 0 mps 556 mmHg 66%
05:00 +17°C° 0 mm 0 mps 556 mmHg 66%
06:00 +17°C° 0 mm 0 mps 556 mmHg 66%
07:00 +20°C° 0 mm 1 mps 557 mmHg 59%
08:00 +21°C° 0 mm 1 mps 558 mmHg 52%
09:00 +22°C° 0 mm 1 mps 558 mmHg 45%
10:00 +22°C° 0 mm 3 mps 559 mmHg 41%
11:00 +23°C° 0 mm 4 mps 559 mmHg 36%
12:00 +25°C° 0 mm 5 mps 559 mmHg 32%
13:00 +25°C° 0 mm 5 mps 559 mmHg 34%
14:00 +23°C° 0 mm 4 mps 558 mmHg 36%
15:00 +23°C° 0 mm 4 mps 558 mmHg 37%
16:00 +22°C° 0 mm 4 mps 558 mmHg 43%
17:00 +21°C° 0 mm 3 mps 557 mmHg 49%
18:00 +20°C° 0 mm 3 mps 557 mmHg 55%
19:00 +19°C° 0.1 mm 2 mps 557 mmHg 58%
20:00 +19°C° 0.1 mm 2 mps 557 mmHg 60%
21:00 +20°C° 0.1 mm 1 mps 558 mmHg 62%
22:00 +20°C° 0.2 mm 1 mps 558 mmHg 60%
23:00 +20°C° 0.2 mm 1 mps 557 mmHg 58%

Day after tomorrow, 7 July, Tuesday

Time Temperature Precipitation Wind Pressure Humidity
00:00 +20°C° 0.2 mm 1 mps 557 mmHg 56%
01:00 +20°C° 0 mm 1 mps 557 mmHg 55%
02:00 +20°C° 0 mm 1 mps 557 mmHg 53%
03:00 +20°C° 0 mm 1 mps 557 mmHg 52%
04:00 +20°C° 0 mm 1 mps 557 mmHg 54%
05:00 +20°C° 0 mm 1 mps 557 mmHg 56%
06:00 +19°C° 0 mm 1 mps 557 mmHg 58%
07:00 +20°C° 0 mm 1 mps 558 mmHg 54%
08:00 +20°C° 0 mm 2 mps 559 mmHg 49%
09:00 +21°C° 0 mm 2 mps 559 mmHg 44%
10:00 +23°C° 0 mm 2 mps 560 mmHg 42%
11:00 +23°C° 0 mm 2 mps 560 mmHg 40%
12:00 +24°C° 0 mm 3 mps 560 mmHg 38%
13:00 +24°C° 0.3 mm 3 mps 559 mmHg 41%
14:00 +24°C° 0.3 mm 3 mps 559 mmHg 44%
15:00 +22°C° 0.3 mm 3 mps 558 mmHg 46%
16:00 +22°C° 0.9 mm 3 mps 558 mmHg 51%
17:00 +21°C° 0.9 mm 3 mps 558 mmHg 55%
18:00 +20°C° 0.9 mm 3 mps 558 mmHg 59%
19:00 +19°C° 1 mm 3 mps 558 mmHg 63%
20:00 +19°C° 1 mm 2 mps 558 mmHg 67%
21:00 +18°C° 1 mm 2 mps 558 mmHg 71%
22:00 +19°C° 0 mm 1 mps 558 mmHg 71%
23:00 +19°C° 0 mm 1 mps 558 mmHg 71%

8 July, Wednesday

Time Temperature Precipitation Wind Pressure Humidity
00:00 +19°C° 0 mm 1 mps 558 mmHg 71%
01:00 +19°C° 0 mm 1 mps 557 mmHg 70%
02:00 +19°C° 0 mm 1 mps 557 mmHg 69%
03:00 +17°C° 0 mm 0 mps 557 mmHg 68%
04:00 +19°C° 0 mm 1 mps 557 mmHg 67%
05:00 +18°C° 0 mm 1 mps 557 mmHg 65%
06:00 +18°C° 0 mm 1 mps 557 mmHg 63%
07:00 +19°C° 0 mm 2 mps 559 mmHg 52%
08:00 +21°C° 0 mm 3 mps 560 mmHg 40%
09:00 +23°C° 0 mm 4 mps 561 mmHg 28%
10:00 +25°C° 0 mm 4 mps 561 mmHg 28%
11:00 +25°C° 0 mm 4 mps 561 mmHg 27%
12:00 +26°C° 0 mm 5 mps 561 mmHg 27%
13:00 +26°C° 0 mm 5 mps 561 mmHg 28%
14:00 +26°C° 0 mm 5 mps 560 mmHg 30%
15:00 +26°C° 0 mm 5 mps 560 mmHg 31%
16:00 +25°C° 0 mm 4 mps 560 mmHg 36%
17:00 +24°C° 0 mm 3 mps 559 mmHg 41%
18:00 +22°C° 0 mm 3 mps 559 mmHg 47%
19:00 +21°C° 0 mm 2 mps 559 mmHg 50%
20:00 +21°C° 0 mm 1 mps 559 mmHg 54%
21:00 +21°C° 0 mm 1 mps 559 mmHg 58%
22:00 +21°C° 0 mm 1 mps 559 mmHg 59%
23:00 +18°C° 0 mm 0 mps 558 mmHg 60%

9 July, Thursday

Time Temperature Precipitation Wind Pressure Humidity
00:00 +18°C° 0 mm 0 mps 558 mmHg 60%
01:00 +18°C° 0 mm 0 mps 558 mmHg 60%
02:00 +18°C° 0 mm 0 mps 557 mmHg 59%
03:00 +18°C° 0 mm 0 mps 557 mmHg 59%
04:00 +18°C° 0 mm 0 mps 557 mmHg 58%
05:00 +18°C° 0 mm 0 mps 557 mmHg 57%
06:00 +20°C° 0 mm 1 mps 557 mmHg 56%
07:00 +21°C° 0 mm 1 mps 558 mmHg 46%
08:00 +23°C° 0 mm 2 mps 560 mmHg 36%
09:00 +24°C° 0 mm 3 mps 561 mmHg 27%
10:00 +25°C° 0 mm 3 mps 561 mmHg 27%
11:00 +25°C° 0 mm 4 mps 561 mmHg 26%
12:00 +26°C° 0 mm 4 mps 561 mmHg 26%
13:00 +25°C° 0 mm 4 mps 560 mmHg 29%
14:00 +25°C° 0 mm 4 mps 560 mmHg 32%
15:00 +25°C° 0 mm 4 mps 559 mmHg 35%
16:00 +24°C° 0 mm 3 mps 559 mmHg 38%
17:00 +22°C° 0 mm 3 mps 558 mmHg 42%
18:00 +21°C° 0 mm 3 mps 558 mmHg 45%
19:00 +21°C° 0 mm 2 mps 558 mmHg 47%
20:00 +22°C° 0 mm 1 mps 558 mmHg 49%
21:00 +21°C° 0 mm 1 mps 558 mmHg 50%
22:00 +19°C° 0 mm 0 mps 558 mmHg 51%
23:00 +19°C° 0 mm 0 mps 558 mmHg 51%

10 July, Friday

Time Temperature Precipitation Wind Pressure Humidity
00:00 +19°C° 0 mm 0 mps 558 mmHg 52%
01:00 +21°C° 0 mm 1 mps 557 mmHg 51%
02:00 +20°C° 0 mm 1 mps 557 mmHg 51%
03:00 +20°C° 0 mm 1 mps 556 mmHg 50%
04:00 +20°C° 0 mm 1 mps 556 mmHg 51%
05:00 +19°C° 0 mm 1 mps 557 mmHg 52%
06:00 +19°C° 0 mm 1 mps 557 mmHg 52%
07:00 +21°C° 0 mm 1 mps 558 mmHg 45%
08:00 +21°C° 0 mm 2 mps 559 mmHg 37%
09:00 +23°C° 0 mm 2 mps 560 mmHg 29%
10:00 +24°C° 0 mm 3 mps 560 mmHg 28%
11:00 +25°C° 0 mm 4 mps 560 mmHg 28%
12:00 +25°C° 0 mm 4 mps 560 mmHg 27%
13:00 +25°C° 0 mm 4 mps 560 mmHg 28%
14:00 +25°C° 0 mm 4 mps 559 mmHg 29%
15:00 +25°C° 0 mm 4 mps 559 mmHg 31%
16:00 +23°C° 0 mm 4 mps 559 mmHg 33%
17:00 +22°C° 0 mm 4 mps 558 mmHg 35%
18:00 +21°C° 0 mm 3 mps 558 mmHg 38%
19:00 +21°C° 0 mm 2 mps 558 mmHg 40%
20:00 +20°C° 0 mm 2 mps 558 mmHg 43%
21:00 +21°C° 0 mm 1 mps 558 mmHg 46%
22:00 +21°C° 0 mm 1 mps 558 mmHg 46%
23:00 +21°C° 0 mm 1 mps 558 mmHg 46%
Show more